Change the Weather History Date:

Friday, October 18, 2013

  Actual Average Record
Temperature  
Mean Temperature 60 °F -  
Max Temperature 68 °F 56 °F 77 °F (1998)
Min Temperature 51 °F 39 °F 18 °F (1978)
Degree Days  
Heating Degree Days 5    
Growing Degree Days 10 (Base 50)    
Moisture  
Dew Point 53 °F    
Average Humidity 83    
Maximum Humidity 100    
Minimum Humidity 41    
Precipitation  
Precipitation 0.06 in - - ()
Sea Level Pressure  
Sea Level Pressure 29.68 in    
Wind  
Wind Speed 6 mph (SSW)    
Max Wind Speed 17 mph    
Max Gust Speed 31 mph    
Visibility 10 miles    
Events Rain    
Averages and records for this station are not official NWS values.
T = Trace of Precipitation, MM = Missing Value Source: NWS Daily Summary

Daily Weather History Graph

Daily Weather History Graph

Search for Another Location

Airport or City:

Trip Planner

Search our weather history database for the weather conditions in past years. The results will help you decide how hot, cold, wet, or windy it might be!

Date:

Astronomy

Oct. 18, 2013 Rise Set
Actual Time 7:00 AM EDT 5:55 PM EDT
Civil Twilight 6:31 AM EDT 6:24 PM EDT
Nautical Twilight 5:58 AM EDT 6:57 PM EDT
Astronomical Twilight 5:26 AM EDT 7:29 PM EDT
Moon 5:42 PM EDT (10/18) 6:32 AM EDT (10/18)
Length of Visible Light 11h 52m
Length of Day
10h 54m
Full, 100% of the Moon is Illuminated
Oct 18
Full
Oct 18
Full
Oct 26
Last Quarter
Nov 3
New
Nov 10
First Quarter

Hourly Weather History & Observations

Time (EDT) Temp. Dew Point Humidity Pressure Visibility Wind Dir Wind Speed Gust Speed Precip Events Conditions
12:30 AM 55.4 °F 50.0 °F 82% 29.71 in 10.0 mi SW 4.6 mph - N/A Rain Light Rain
12:40 AM 55.4 °F 51.8 °F 88% 29.71 in 10.0 mi SW 3.5 mph - N/A   Overcast
12:58 AM 55.4 °F 51.8 °F 88% 29.71 in 10.0 mi Calm Calm - 0.00 in   Overcast
12:59 AM 55.4 °F 51.8 °F 88% 29.70 in 10.0 mi NE 1.2 mph - N/A Rain Light Rain
1:21 AM 57.2 °F 53.6 °F 88% 29.69 in 10.0 mi North 1.2 mph - N/A Rain Light Rain
1:51 AM 55.4 °F 55.4 °F 100% 29.67 in 10.0 mi NE 4.6 mph - N/A Rain Light Rain
1:58 AM 55.6 °F 55.2 °F 99% 29.68 in 10.0 mi NE 2.3 mph - 0.03 in   Light Drizzle
1:59 AM 55.4 °F 55.4 °F 100% 29.67 in 10.0 mi NE 2.3 mph - N/A   Overcast
2:18 AM 55.4 °F 55.4 °F 100% 29.66 in 10.0 mi SE 4.6 mph - N/A   Overcast
2:28 AM 55.4 °F 55.4 °F 100% 29.66 in 10.0 mi SSE 3.5 mph - N/A   Overcast
2:33 AM 55.4 °F 55.4 °F 100% 29.66 in 10.0 mi ESE 3.5 mph - N/A   Overcast
2:38 AM 55.4 °F 55.4 °F 100% 29.66 in 10.0 mi SE 2.3 mph - N/A   Overcast
2:53 AM 57.2 °F 57.2 °F 100% 29.65 in 9.0 mi ESE 3.5 mph - N/A   Overcast
2:54 AM 57.2 °F 57.2 °F 100% 29.65 in 9.0 mi SE 2.3 mph - N/A Rain Light Rain
2:58 AM 57.0 °F 56.7 °F 99% 29.66 in 8.0 mi ESE 3.5 mph - 0.00 in Rain Light Rain
3:12 AM 59.0 °F 59.0 °F 100% 29.64 in 8.0 mi SE 5.8 mph - N/A   Overcast
3:23 AM 59.0 °F 59.0 °F 100% 29.63 in 7.0 mi SSE 6.9 mph - N/A Rain Light Rain
3:33 AM 59.0 °F 59.0 °F 100% 29.62 in 5.0 mi SE 8.1 mph - N/A Rain Light Rain
3:46 AM 59.0 °F 59.0 °F 100% 29.61 in 7.0 mi SSE 8.1 mph - N/A   Overcast
3:58 AM 59.5 °F 59.2 °F 99% 29.62 in 8.0 mi SSE 8.1 mph - 0.03 in   Overcast
4:03 AM 59.0 °F 59.0 °F 100% 29.61 in 8.0 mi SSE 8.1 mph - N/A   Overcast
4:08 AM 59.0 °F 59.0 °F 100% 29.61 in 8.0 mi SSE 8.1 mph - N/A   Overcast
4:28 AM 60.8 °F 59.0 °F 94% 29.60 in 10.0 mi SSE 9.2 mph - N/A   Overcast
4:58 AM 60.3 °F 59.9 °F 99% 29.61 in 10.0 mi South 10.4 mph - N/A   Overcast
5:18 AM 60.8 °F 60.8 °F 100% 29.59 in 10.0 mi South 9.2 mph - N/A   Overcast
5:48 AM 60.8 °F 60.8 °F 100% 29.58 in 10.0 mi South 8.1 mph - N/A   Overcast
5:58 AM 60.8 °F 60.4 °F 99% 29.59 in 10.0 mi South 9.2 mph - N/A   Overcast
6:03 AM 60.8 °F 60.8 °F 100% 29.58 in 10.0 mi SSW 5.8 mph - N/A   Overcast
6:18 AM 60.8 °F 60.8 °F 100% 29.58 in 10.0 mi SW 5.8 mph - N/A   Overcast
6:48 AM 60.8 °F 60.8 °F 100% 29.59 in 10.0 mi SW 9.2 mph - N/A   Mostly Cloudy
6:53 AM 60.8 °F 60.8 °F 100% 29.59 in 10.0 mi WSW 11.5 mph - N/A   Mostly Cloudy
6:58 AM 61.5 °F 61.3 °F 99% 29.60 in 10.0 mi WSW 10.4 mph 18.4 mph N/A   Mostly Cloudy
7:58 AM 60.8 °F 55.9 °F 84% 29.64 in 10.0 mi West 8.1 mph - N/A   Clear
8:58 AM 61.0 °F 52.7 °F 74% 29.67 in 10.0 mi West 11.5 mph 19.6 mph N/A   Clear
9:58 AM 63.3 °F 50.5 °F 63% 29.69 in 10.0 mi WNW 16.1 mph 25.3 mph N/A   Clear
10:58 AM 64.2 °F 49.3 °F 58% 29.70 in 10.0 mi WNW 17.3 mph 31.1 mph N/A   Partly Cloudy
11:58 AM 65.8 °F 47.3 °F 51% 29.71 in 10.0 mi West 12.7 mph 20.7 mph N/A   Mostly Cloudy
12:58 PM 67.6 °F 44.8 °F 44% 29.70 in 10.0 mi West 15.0 mph 26.5 mph N/A   Partly Cloudy
1:58 PM 67.1 °F 44.8 °F 45% 29.71 in 10.0 mi West 12.7 mph 21.9 mph N/A   Partly Cloudy
2:58 PM 67.8 °F 43.2 °F 41% 29.73 in 10.0 mi West 15.0 mph 20.7 mph N/A   Scattered Clouds
3:58 PM 64.9 °F 42.8 °F 45% 29.75 in 10.0 mi West 13.8 mph - N/A   Mostly Cloudy
4:58 PM 63.3 °F 43.5 °F 48% 29.77 in 10.0 mi West 8.1 mph 20.7 mph N/A   Partly Cloudy
5:58 PM 60.4 °F 43.3 °F 53% 29.79 in 10.0 mi West 5.8 mph - N/A   Partly Cloudy
6:58 PM 58.8 °F 42.4 °F 55% 29.80 in 10.0 mi WSW 9.2 mph - N/A   Clear
7:58 PM 56.1 °F 41.9 °F 59% 29.82 in 10.0 mi WSW 5.8 mph - N/A   Clear
8:58 PM 54.3 °F 41.9 °F 63% 29.84 in 10.0 mi SW 4.6 mph - N/A   Clear
9:58 PM 53.4 °F 40.6 °F 62% 29.86 in 10.0 mi WSW 6.9 mph - N/A   Clear
10:58 PM 53.4 °F 38.3 °F 57% 29.88 in 10.0 mi West 9.2 mph - N/A   Clear
11:58 PM 51.4 °F 36.5 °F 57% 29.88 in 10.0 mi West 6.9 mph - N/A   Clear